This is the latest recevied weather packets stored in our database for station/object K1ABC. If no packets are shown the sender has not sent any weather packets the latest 10 day(s).
| Time | Temp. | Humidity | Pressure | Rain* | Wind** | Luminosity | Snow |
|---|---|---|---|---|---|---|---|
| 1777920897 | 21.67° C | 28% | 1005.7 hPa | 0 mm | - | - | - |
| 1777919998 | 21.67° C | 29% | 1005.8 hPa | 0 mm | - | - | - |
| 1777918728 | 22.78° C | 27% | 1006 hPa | 0 mm | - | - | - |
| 1777918607 | 22.78° C | 29% | 1005.9 hPa | 0 mm | - | - | - |
| 1777918229 | 22.22° C | 29% | 1006 hPa | 0 mm | - | - | - |
| 1777917601 | 22.22° C | 29% | 1005.9 hPa | 0 mm | - | - | - |
| 1777917237 | 22.22° C | 28% | 1006.1 hPa | 0 mm | - | - | - |
| 1777917110 | 22.22° C | 30% | 1006 hPa | 0 mm | - | - | - |
| 1777916859 | 22.22° C | 29% | 1006.1 hPa | 0 mm | - | - | - |
| 1777916417 | 22.22° C | 29% | 1006.2 hPa | 0 mm | - | - | - |
| 1777915502 | 21.67° C | 30% | 1006.2 hPa | 0 mm | - | - | - |
| 1777915247 | 21.67° C | 30% | 1006.2 hPa | 0 mm | - | - | - |
| 1777914487 | 21.11° C | 32% | 1006.3 hPa | 0 mm | - | - | - |
| 1777913438 | 21.11° C | 30% | 1006.5 hPa | 0 mm | - | - | - |
| 1777913111 | 21.11° C | 33% | 1006.5 hPa | 0 mm | - | - | - |
| 1777912860 | 21.11° C | 30% | 1006.6 hPa | 0 mm | - | - | - |
| 1777912090 | 21.11° C | 31% | 1006.3 hPa | 0 mm | - | - | - |
| 1777911837 | 20.56° C | 31% | 1006.5 hPa | 0 mm | - | - | - |
| 1777910881 | 20.56° C | 32% | 1006.6 hPa | 0 mm | - | - | - |
| 1777910506 | 20.56° C | 32% | 1006.7 hPa | 0 mm | - | - | - |
| 1777909882 | 20.56° C | 34% | 1006.8 hPa | 0 mm | - | - | - |
| 1777909360 | 20° C | 36% | 1007 hPa | 0 mm | - | - | - |
| 1777909235 | 20° C | 35% | 1007.1 hPa | 0 mm | - | - | - |
| 1777909104 | 20° C | 36% | 1007 hPa | 0 mm | - | - | - |
| 1777908528 | 19.44° C | 34% | 1007.1 hPa | 0 mm | - | - | - |
* Rain latest hour (hover to see other rain measurements)
** Current wind speed in m/s (hover to see current wind gust speed)